Kake, AK

4:19 AM AKDT on July 29, 2017 (GMT -0800)
Kake

Weather History for PAFE - May, 2013

Change the Weather History Date:

Thursday, May 9, 2013

  Actual Average Record
Temperature  
Mean Temperature 45 °F -  
Max Temperature 55 °F 49 °F 69 °F (2005)
Min Temperature 35 °F 35 °F 30 °F (1998)
Degree Days  
Heating Degree Days 20    
Moisture  
Dew Point 36 °F    
Average Humidity 69    
Maximum Humidity 87    
Minimum Humidity 51    
Precipitation  
Precipitation 0.00 in - - ()
Sea Level Pressure  
Sea Level Pressure 30.26 in    
Wind  
Wind Speed 4 mph (NNE)    
Max Wind Speed 8 mph    
Max Gust Speed -    
Visibility 10 miles    
Events      
Averages and records for this station are not official NWS values.
T = Trace of Precipitation, MM = Missing Value Source: NWS Daily Summary

Daily Weather History Graph

Daily Weather History Graph

Search for Another Location

Airport or City:

Trip Planner

Search our weather history database for the weather conditions in past years. The results will help you decide how hot, cold, wet, or windy it might be!

Date:

Astronomy

May. 09, 2013 Rise Set
Actual Time 4:48 AM AKDT 8:56 PM AKDT
Civil Twilight 3:59 AM AKDT 9:46 PM AKDT
Nautical Twilight 2:43 AM AKDT 11:03 PM AKDT
Astronomical Twilight 1:24 AM AKDT 12:19 AM AKDT
Moon 4:44 AM AKDT (5/9) 8:58 PM AKDT (5/9)
Length of Visible Light 17h 47m
Length of Day
16h 07m
Waning Crescent, 0% of the Moon is Illuminated
May 9
Waning Crescent
May 9
New
May 17
First Quarter
May 24
Full
May 31
Last Quarter

Hourly Weather History & Observations

Time (AKDT) Temp. Windchill Dew Point Humidity Pressure Visibility Wind Dir Wind Speed Gust Speed Precip Events Conditions
12:16 AM 37.4 °F 32.8 °F 33.8 °F 87% 30.23 in 10.0 mi ENE 5.8 mph - N/A   Clear
12:36 AM 37.4 °F 32.8 °F 33.8 °F 87% 30.23 in 10.0 mi East 5.8 mph - N/A   Clear
12:56 AM 37.4 °F 32.8 °F 33.8 °F 87% 30.23 in 10.0 mi East 5.8 mph - N/A   Clear
1:16 AM 37.4 °F 32.1 °F 33.8 °F 87% 30.23 in 10.0 mi NNE 6.9 mph - N/A   Clear
1:36 AM 37.4 °F 34.9 °F 33.8 °F 87% 30.24 in 10.0 mi North 3.5 mph - N/A   Clear
1:56 AM 37.4 °F 31.4 °F 32.0 °F 81% 30.23 in 10.0 mi NE 8.1 mph - N/A   Clear
2:16 AM 39.2 °F - 33.8 °F 81% 30.24 in 10.0 mi Calm Calm - N/A   Clear
2:36 AM 37.4 °F 32.8 °F 32.0 °F 81% 30.25 in 10.0 mi North 5.8 mph - N/A   Clear
2:56 AM 35.6 °F 32.8 °F 32.0 °F 87% 30.25 in 10.0 mi East 3.5 mph - N/A   Clear
3:16 AM 35.6 °F 32.8 °F 32.0 °F 87% 30.24 in 10.0 mi North 3.5 mph - N/A   Clear
3:36 AM 35.6 °F 32.8 °F 32.0 °F 87% 30.24 in 10.0 mi NE 3.5 mph - N/A   Clear
3:56 AM 37.4 °F - 33.8 °F 87% 30.25 in 10.0 mi Calm Calm - N/A   Clear
4:16 AM 35.6 °F 31.7 °F 30.2 °F 81% 30.24 in 10.0 mi NNE 4.6 mph - N/A   Clear
4:36 AM 35.6 °F 31.7 °F 32.0 °F 87% 30.25 in 10.0 mi ENE 4.6 mph - N/A   Clear
4:56 AM 35.6 °F 31.7 °F 32.0 °F 87% 30.25 in 10.0 mi NE 4.6 mph - N/A   Clear
5:16 AM 35.6 °F 32.8 °F 32.0 °F 87% 30.25 in 10.0 mi North 3.5 mph - N/A   Clear
5:36 AM 37.4 °F - 33.8 °F 87% 30.25 in 10.0 mi Calm Calm - N/A   Clear
5:56 AM 39.2 °F - 35.6 °F 87% 30.26 in 10.0 mi Calm Calm - N/A   Clear
6:16 AM 39.2 °F - 35.6 °F 87% 30.26 in 10.0 mi Calm Calm - N/A   Clear
6:36 AM 41.0 °F - 35.6 °F 81% 30.27 in 10.0 mi Calm Calm - N/A   Clear
6:56 AM 42.8 °F - 37.4 °F 81% 30.27 in 10.0 mi Calm Calm - N/A   Clear
7:16 AM 42.8 °F - 37.4 °F 81% 30.27 in 10.0 mi Calm Calm - N/A   Clear
7:36 AM 44.6 °F - 37.4 °F 76% 30.27 in 10.0 mi Calm Calm - N/A   Clear
7:56 AM 44.6 °F - 37.4 °F 76% 30.27 in 10.0 mi Calm Calm - N/A   Clear
8:16 AM 46.4 °F - 35.6 °F 66% 30.27 in 10.0 mi Calm Calm - N/A   Clear
8:36 AM 46.4 °F - 39.2 °F 76% 30.28 in 10.0 mi Calm Calm - N/A   Clear
8:56 AM 48.2 °F - 39.2 °F 71% 30.28 in 10.0 mi Calm Calm - N/A   Clear
9:16 AM 48.2 °F - 39.2 °F 71% 30.28 in 10.0 mi NNE 3.5 mph - N/A   Clear
9:36 AM 50.0 °F - 39.2 °F 66% 30.28 in 10.0 mi West 4.6 mph - N/A   Clear
9:56 AM 50.0 °F - 39.2 °F 66% 30.29 in 10.0 mi NE 3.5 mph - N/A   Clear
10:16 AM 51.8 °F - 39.2 °F 62% 30.29 in 10.0 mi WSW 4.6 mph - N/A   Clear
10:36 AM 51.8 °F - 37.4 °F 58% 30.29 in 10.0 mi WNW 4.6 mph - N/A   Clear
10:56 AM 51.8 °F - 37.4 °F 58% 30.30 in 10.0 mi WNW 5.8 mph - N/A   Clear
11:16 AM 53.6 °F - 37.4 °F 54% 30.30 in 10.0 mi West 5.8 mph - N/A   Clear
11:36 AM 51.8 °F - 35.6 °F 54% 30.30 in 10.0 mi ENE 3.5 mph - N/A   Clear
11:56 AM 53.6 °F - 37.4 °F 54% 30.29 in 10.0 mi North 4.6 mph - N/A   Clear
12:16 PM 51.8 °F - 37.4 °F 58% 30.30 in 10.0 mi West 3.5 mph - N/A   Clear
12:36 PM 51.8 °F - 37.4 °F 58% 30.30 in 10.0 mi NE 5.8 mph - N/A   Clear
12:56 PM 51.8 °F - 37.4 °F 58% 30.30 in 10.0 mi North 5.8 mph - N/A   Clear
1:16 PM 53.6 °F - 37.4 °F 54% 30.29 in 10.0 mi North 5.8 mph - N/A   Clear
1:36 PM 53.6 °F - 37.4 °F 54% 30.29 in 10.0 mi NNE 4.6 mph - N/A   Clear
1:56 PM 53.6 °F - 37.4 °F 54% 30.29 in 10.0 mi North 5.8 mph - N/A   Clear
2:16 PM 53.6 °F - 37.4 °F 54% 30.29 in 10.0 mi North 5.8 mph - N/A   Clear
2:36 PM 53.6 °F - 37.4 °F 54% 30.29 in 10.0 mi NE 4.6 mph - N/A   Clear
2:56 PM 55.4 °F - 37.4 °F 51% 30.28 in 10.0 mi North 3.5 mph - N/A   Clear
3:16 PM 55.4 °F - 39.2 °F 54% 30.28 in 10.0 mi SSW 3.5 mph - N/A   Clear
3:36 PM 55.4 °F - 39.2 °F 54% 30.27 in 10.0 mi ENE 4.6 mph - N/A   Clear
3:56 PM 55.4 °F - 39.2 °F 54% 30.27 in 10.0 mi NNW 5.8 mph - N/A   Clear
4:16 PM 53.6 °F - 39.2 °F 58% 30.26 in 10.0 mi SSW 3.5 mph - N/A   Clear
4:36 PM 55.4 °F - 39.2 °F 54% 30.26 in 10.0 mi SSW 4.6 mph - N/A   Clear
4:56 PM 55.4 °F - 39.2 °F 54% 30.25 in 10.0 mi SSW 5.8 mph - N/A   Clear
5:16 PM 53.6 °F - 37.4 °F 54% 30.24 in 10.0 mi North 3.5 mph - N/A   Clear
5:56 PM 53.6 °F - 39.2 °F 58% 30.24 in 10.0 mi SSW 3.5 mph - N/A   Clear
6:16 PM 53.6 °F - 37.4 °F 54% 30.24 in 10.0 mi South 4.6 mph - N/A   Clear
6:36 PM 53.6 °F - 37.4 °F 54% 30.24 in 10.0 mi Calm Calm - N/A   Clear
6:56 PM 53.6 °F - 37.4 °F 54% 30.24 in 10.0 mi NNE 3.5 mph - N/A   Clear
7:16 PM 53.6 °F - 39.2 °F 58% 30.23 in 10.0 mi South 3.5 mph - N/A   Clear
7:56 PM 53.6 °F - 39.2 °F 58% 30.23 in 10.0 mi Calm Calm - N/A   Clear
8:16 PM 53.6 °F - 39.2 °F 58% 30.23 in 10.0 mi Calm Calm - N/A   Clear
8:36 PM 51.8 °F - 39.2 °F 62% 30.23 in 10.0 mi Calm Calm - N/A   Clear
8:56 PM 50.0 °F - 39.2 °F 66% 30.24 in 10.0 mi Calm Calm - N/A   Clear
9:16 PM 48.2 °F - 37.4 °F 66% 30.24 in 10.0 mi Calm Calm - N/A   Clear
9:36 PM 48.2 °F - 37.4 °F 66% 30.24 in 10.0 mi East 3.5 mph - N/A   Clear
9:56 PM 48.2 °F - 35.6 °F 62% 30.24 in 10.0 mi Calm Calm - N/A   Clear
10:16 PM 46.4 °F - 35.6 °F 66% 30.24 in 10.0 mi Calm Calm - N/A   Clear
10:36 PM 44.6 °F 43.1 °F 35.6 °F 71% 30.24 in 10.0 mi East 3.5 mph - N/A   Clear
10:56 PM 44.6 °F 41.4 °F 35.6 °F 71% 30.24 in 10.0 mi East 5.8 mph - N/A   Clear
11:16 PM 44.6 °F - 35.6 °F 71% 30.24 in 10.0 mi Calm Calm - N/A   Clear
11:36 PM 44.6 °F - 35.6 °F 71% 30.24 in 10.0 mi Calm Calm - N/A   Clear
11:56 PM 41.0 °F 39.0 °F 35.6 °F 81% 30.25 in 10.0 mi East 3.5 mph - N/A   Clear